Regional Weather Roundup
Issued by NWS

Home | Current Version | Previous Version | Graphics & Text | Print | Product List | Glossary Off
Versions: 1 2 3 4 5 6 7 8 9 10 11 12 13 14 15 16 17 18 19 20 21 22 23 24 25 26 27 28 29 30 31 32 33 34 35 36 37 38 39 40 41 42 43 44 45 46 47 48 49 50

442
ASUS43 KMPX 290001
RWRMN
WEATHER ROUNDUP FOR MINNESOTA
NATIONAL WEATHER SERVICE TWIN CITIES/CHANHASSEN MN
700 PM CDT WED JUN 28 2017


NOTE: "FAIR" INDICATES FEW OR NO CLOUDS BELOW 12,000 FEET WITH NO
SIGNIFICANT WEATHER AND/OR OBSTRUCTIONS TO VISIBILITY. N/A MEANS
CURRENT SKY AND/OR WEATHER CONDITIONS ARE NOT AVAILABLE.

MNZ060>063-068>070-290100-
   Twin Cities Metro

CITY           SKY/WX    TMP DP  RH WIND       PRES   REMARKS
TWIN CITIES    FAIR      79  62  56 W17       29.53R
6HR MIN TEMP:  74; 6HR MAX TEMP:  83; 6HR PCP:  0.15;

ST PAUL        FAIR      78  64  61 W14G24    29.52R
CRYSTAL        PTSUNNY   76  61  59 W12G23    29.52R
BLAINE         PTSUNNY   79  64  61 W14       29.51F
LAKEVILLE      FAIR      77  66  69 NW14      29.53R
EDEN PRAIRIE   FAIR      79  62  56 W14G25    29.52S
6HR MIN TEMP:  77; 6HR MAX TEMP:  85;

SOUTH ST PAUL  FAIR      79  63  58 W16       29.52R
LAKE ELMO      FAIR      77  64  65 W13G21    29.53S
$$
MNZ001>005-007-008-013>017-022>024-027-028-290100-
   Northwest Minnesota

CITY           SKY/WX    TMP DP  RH WIND       PRES   REMARKS
BEMIDJI        RAIN      60  59  98 NW8       29.56S
HALLOCK        CLOUDY    66  63  88 E3        29.64R
ROSEAU         RAIN      61  55  82 N5        29.64R
WARROAD        HVY RAIN  61  55  82 NE5       29.64R
CROOKSTON      CLOUDY    63  63 100 N12       29.63R
FOSSTON        RAIN      57  57 100 NW8       29.61R
DETROIT LAKES  CLOUDY    64  61  88 NW15G24   29.60R
MOORHEAD       PTSUNNY   68  61  77 N15       29.61R
PARK RAPIDS    LGT RAIN  63  59  87 N9        29.54R FOG
MAHNOMEN       CLOUDY    61  59  94 N14       29.60R
$$
MNZ006-009>011-018-025>026-290100-
   North Central Minnesota

CITY           SKY/WX    TMP DP  RH WIND       PRES   REMARKS
BAUDETTE       LGT RAIN  62  61  96 N7        29.61R FOG
FLAG ISLAND    LGT RAIN  61  57  88 N8        29.64R
INTL FALLS     LGT RAIN  61  58  90 E8        29.60R
6HR MIN TEMP:  60; 6HR MAX TEMP:  63; 6HR PCP:  0.07;

WASKISH        LGT RAIN  63  61  94 N5        29.59R
BIG FORK       CLOUDY    61  57  88 NE7       29.56R
LONGVILLE      CLOUDY    61  59  94 CALM      29.54R
GRAND RAPIDS   LGT RAIN  60  59  96 VRB5      29.55R
CRANE LAKE     RAIN      57  55  94 CALM      29.60S
ORR            DRIZZLE   57  55  94 E5        29.55S
COOK           LGT RAIN  59  57  94 NE3       29.56S
WALKER         RAIN      60  58  96 N6        29.55R
$$
MNZ012-019>021-037-290100-
   Northeast Minnesota

CITY           SKY/WX    TMP DP  RH WIND       PRES   REMARKS
DULUTH         LGT RAIN  57  57 100 E14G20    29.52F VSB 1
6HR MIN TEMP:  54; 6HR MAX TEMP:  57; 6HR PCP:  0.51;

ELY            DRIZZLE   57  55  94 E6        29.58F
HIBBING        CLOUDY    58  58 100 E7        29.53S
EVELETH        CLOUDY    60  57  90 E7        29.55F
DULUTH HARBOR  LGT RAIN  52  52 100 NE22      29.53S
TWO HARBORS    LGT RAIN  61  55  82 NE9       29.53S
SILVER BAY     LGT RAIN  57  57 100 NE9G20    29.55S
GRAND MARAIS     N/A     51  51 100 E8        29.61F
G MARAIS ARPRT LGT RAIN  55  54  94 E8        29.64S
$$
MNZ029>031-032-039>041-046>048-054>057-064-290100-
   West Central Minnesota

CITY           SKY/WX    TMP DP  RH WIND       PRES   REMARKS
FERGUS FALLS   FAIR      70  61  73 NW16G24   29.57R
WHEATON        PTSUNNY   73  61  64 NW10G21   29.61S
MORRIS         FAIR      75  61  60 NW17G29   29.58R
ALEXANDRIA     CLOUDY    67  60  78 NW17      29.59R
ELBOW LAKE     FAIR      69  62  79 W18G26    29.60R
WADENA         CLOUDY    64  63  94 W9G17     29.54S
GLENWOOD       FAIR      70  61  73 NW28G33   29.58R
APPLETON       FAIR      79  59  50 NW16G22   29.58R
BENSON         FAIR      75  61  60 N24G33    29.59R
ORTONVILLE     FAIR      77  59  53 NW15G25   29.60R
MADISON        FAIR      81  63  54 N21       29.59R
WILLMAR        FAIR      77  64  65 NW21      29.58R
$$
MNZ033>034-036-042>043-049>051-058-059-290100-
   Central Minnesota

CITY           SKY/WX    TMP DP  RH WIND       PRES   REMARKS
ST CLOUD       PTSUNNY   74  63  68 W12       29.52R
6HR MIN TEMP:  69; 6HR MAX TEMP:  76; 6HR PCP: TRACE;

SAUK CENTRE    CLOUDY    68  60  75 W15G23    29.56R
PAYNESVILLE    FAIR      76  59  55 W15G23    29.56R
AITKIN         CLOUDY    63  61  94 N3        29.49R
PINE RIVER     DRIZZLE   63  63 100 MISG      29.57R
BRAINERD       LGT RAIN  64  63  96 W8        29.51R FOG
STAPLES        CLOUDY    64  63  94 W10       29.53S FOG
LONG PRAIRIE   CLOUDY    64  59  82 W15G22    29.56R
LITTLE FALLS   CLOUDY    68  59  73 W15G23    29.53R
LITCHFIELD     FAIR      79  64  61 W10       29.56S
BUFFALO        FAIR      76  61  58 W14G21    29.54F
MAPLE LAKE     FAIR      76  64  66 W12G21    29.55S
HUTCHINSON     FAIR      78  66  66 W10       29.57S
$$
MNZ037-044-045-052-053-290100-
   East Central Minnesota

CITY           SKY/WX    TMP DP  RH WIND       PRES   REMARKS
PRINCETON      PTSUNNY   75  64  69 W13G22    29.51S
MORA           FAIR      70  63  78 W10G17    29.51S
CAMBRIDGE      FAIR      77  63  61 W14G20    29.49S
RUSH CITY      PTSUNNY   72  66  83 W5        29.50S
MOOSE LAKE     CLOUDY    54  52  94 NE6       29.49S FOG
HINCKLEY       CLOUDY    70  66  88 W10       29.49S
CLOQUET        HVY RAIN  57  55  94 E9        29.51S
MCGREGOR       CLOUDY    59  59 100 E3        29.50S
$$
MNZ071>073-080-081-089-090-097-098-290100-
   Southwest Minnesota

CITY           SKY/WX    TMP DP  RH WIND       PRES   REMARKS
MONTEVIDEO     FAIR      81  63  54 N18G30    29.58R
GRANITE FALLS  FAIR      82  63  51 W16G22    29.59R
CANBY          FAIR      83  57  41 W16G26    29.61R
MARSHALL       FAIR      81  63  54 NW16G22   29.59R
REDWOOD FALLS  FAIR      81  61  50 NW16G22   29.56R
OLIVIA         FAIR      79  63  57 NW16G23   29.56R
PIPESTONE      FAIR      82  57  42 NW14      29.64R
WINDOM         FAIR      82  64  54 W14G24    29.58F
WORTHINGTON    FAIR      81  66  60 W13       29.61F
JACKSON        FAIR      81  63  54 W16       29.59F
TRACY          PTSUNNY   80  66  62 NW10      29.60R
SLAYTON        FAIR      81  63  53 W13       29.62S
$$
MNZ065>067-074>077-082>085-091>093-290100-
   South Central Minnesota

CITY           SKY/WX    TMP DP  RH WIND       PRES   REMARKS
MANKATO        PTSUNNY   80  66  62 NW13G21   29.55R
NEW ULM        FAIR      81  63  54 NW15      29.55R
ST JAMES       FAIR      82  64  54 W12       29.56S
FAIRMONT       FAIR      82  66  58 W15G22    29.57S
GLENCOE        FAIR      78  67  69 W10       29.55S
FARIBAULT      PTSUNNY   81  66  61 W12G18    29.55R
OWATONNA       FAIR      82  68  61 W14       29.55R
WASECA         FAIR      79  66  65 W9        29.56S
ALBERT LEA     FAIR      82  64  54 W8        29.57R
$$
MNZ078>079-086>088-094>096-290100-
   Southeast Minnesota

CITY           SKY/WX    TMP DP  RH WIND       PRES   REMARKS
ROCHESTER      PTSUNNY   76  70  82 S12       29.56F THUNDER
6HR MIN TEMP:  71; 6HR MAX TEMP:  78;

RED WING       FAIR      82  63  51 W10G16    29.51R
STANTON        FAIR      81  65  56 W12G20    29.52S
DODGE CENTER   FAIR      81  66  61 W13       29.55F
WINONA         LGT RAIN  73  66  78 SW6       29.58R
AUSTIN         PTSUNNY   79  68  69 SW9       29.57R
PRESTON        FAIR      73  65  77 S13       29.60S
$$
ABBREVIATIONS USED IN REMARKS
   TC - TEMPERATURES IN CELSIUS
  WCI - WIND CHILL INDEX
   HX - HEAT INDEX
  VSB - VISIBILITY
$$




USA.gov is the U.S. government's official web portal to all federal, state and local government web resources and services.